CZ-6A DEB, 54498

Orbit data source: Space-Track

CZ-6A DEB, 54498 is space debris in SSO originally from a launch on Fri, 11 Nov 2022 UTC launched from the Taiyaun Space Center, China (TSC). Debris objects in space refer to the collection of defunct objects orbiting the Earth. Examples of debris include non-operational satellites, rocket bodies, and fragments generated from explosions, collisions, or faulty payload assembly.

Loading next visibility...
Identifier
54498, 2022-151JA
Orbit
SSO
Country
Flag of CNCN / PRC
Related business
Manufacturer
SAST
Mission
Spacecraft
Bus & Motor
Unknown
Mass
Unknown
Launch date (UTC)
2022-11-11 (4 years ago)
Launch vehicle
Unknown
Launch site
Taiyaun Space Center, China (TSC)
Object type
Payload
Rocket body
Debris
Shape & HBR
Unknown shape, 0.1 m
Radar Cross Section
Medium (>0.1 m² and <1 m²)

Expand to show TLE details & history
Last TLE update: 17 hours ago

TLE from 17 hours ago
0 CZ-6A DEB
1 54498U 22151JA  26235.57735062  .00004126  00000-0  11010-2 0  9992
2 54498  98.7606 292.4588 0025680 122.7175 237.6498 14.48770744197688
Epoch: 2026-08-23T13:51Z
TLE epoch observation values (Epoch: 2026-08-23T13:51:23.093Z)
Latitude
-0.00002°
Longitude
112.74118°
Altitude
742.421 km
Speed
7.478 km/s
True Right ascension
19h 29m 50s
True Declination
0° 00' 00"
Sunlit
Object was in full shadow at epoch
Visualization orbit readout
Latitude
Unknown
Longitude
Unknown
Altitude
Unknown
Speed
Unknown
Apparent Right ascension
Unknown
Apparent Declination
Unknown
Sunlit
N/A
Visualization observer readout
Local Sidereal Time
22:17:53
Azimuth
Unknown
Elevation
Unknown
Doppler factor
Unknown
Orbital elements
Apogee altitude
745.034 km
Perigee altitude
708.543 km
Semi-major axis
7,104.926 km
Eccentricity
0.00257
Inclination
98.7606°
RAAN
292.4588°
Arg. of periapsis
122.7175°
True anomaly
237.40163°
Mean anomaly
237.6498°
Eccentric anomaly
237.52567°
Mean motion
3.62413 °/min
Orbital period
99.33 mins
BSTAR
0.001101
Loading maneuver chart data...
Computing Atmospheric mass density...
Loading historical data...
Loading historical data...
Loading historical data...
Loading historical data...
Loading historical data...
Loading historical data...
Loading historical data...

Documentation

Showing up to 5 results
|